This is the latest recevied weather packets stored in our database for station/object K5EAA-13. If no packets are shown the sender has not sent any weather packets the latest 10 day(s).
| Time | Temp. | Humidity | Pressure | Rain* | Wind** | Luminosity | Snow |
|---|---|---|---|---|---|---|---|
| 1787959955 | 36.67° C | 32% | 1014 hPa | 0 mm | - | 126 W/m² | - |
| 1787959650 | 37.22° C | 29% | 1014.1 hPa | 0 mm | - | 137 W/m² | - |
| 1787959350 | 37.22° C | 30% | 1014.2 hPa | 0 mm | - | 148 W/m² | - |
| 1787959045 | 37.22° C | 30% | 1014.4 hPa | 0 mm | - | 159 W/m² | - |
| 1787958740 | 37.22° C | 31% | 1014.2 hPa | 0 mm | - | 168 W/m² | - |
| 1787958436 | 37.22° C | 29% | 1014.1 hPa | 0 mm | - | 182 W/m² | - |
| 1787958132 | 37.22° C | 29% | 1014 hPa | 0 mm | - | 198 W/m² | - |
| 1787957830 | 37.22° C | 29% | 1013.8 hPa | 0 mm | - | 216 W/m² | - |
| 1787957525 | 37.78° C | 28% | 1013.8 hPa | 0 mm | - | 234 W/m² | - |
| 1787957220 | 37.78° C | 30% | 1014.2 hPa | 0 mm | - | 250 W/m² | - |
| 1787956915 | 37.78° C | 28% | 1014 hPa | 0 mm | - | 266 W/m² | - |
| 1787956614 | 38.89° C | 27% | 1014.1 hPa | 0 mm | - | 281 W/m² | - |
| 1787956309 | 38.33° C | 27% | 1014.1 hPa | 0 mm | - | 299 W/m² | - |
| 1787956005 | 38.33° C | 26% | 1014 hPa | 0 mm | - | 302 W/m² | - |
| 1787955700 | 37.78° C | 27% | 1014.1 hPa | 0 mm | - | 326 W/m² | - |
| 1787955396 | 37.78° C | 28% | 1014.2 hPa | 0 mm | - | 342 W/m² | - |
| 1787955094 | 37.78° C | 28% | 1014.2 hPa | 0 mm | - | 359 W/m² | - |
| 1787954791 | 37.78° C | 28% | 1014.1 hPa | 0 mm | - | 364 W/m² | - |
| 1787954487 | 37.78° C | 29% | 1014.2 hPa | 0 mm | - | 397 W/m² | - |
| 1787954186 | 37.78° C | 29% | 1014.5 hPa | 0 mm | - | 414 W/m² | - |
| 1787953886 | 38.33° C | 29% | 1014.3 hPa | 0 mm | - | 426 W/m² | - |
| 1787953586 | 38.33° C | 28% | 1014.6 hPa | 0 mm | - | 447 W/m² | - |
| 1787953286 | 38.89° C | 27% | 1014.7 hPa | 0 mm | - | 465 W/m² | - |
| 1787952983 | 38.89° C | 28% | 1014.6 hPa | 0 mm | - | 478 W/m² | - |
| 1787952678 | 38.33° C | 28% | 1014.7 hPa | 0 mm | - | 487 W/m² | - |
* Rain latest hour (hover to see other rain measurements)
** Current wind speed in m/s (hover to see current wind gust speed)